Location: Casone le Fosse
(44.6547°N, 12.1103°E)
Time: 03:56:10
(UTC+00:00)

FALCON 9 DEB - Pass Details

Date: 29 October 2020
Orbit: 377 x 396 km, 53.0° (Epoch: 01 December)

Event Time Altitude Azimuth Distance (km) Brightness Sun altitude
Rises 16:48:29 0° 254° (WSW) 2,307 9.2 -8.4°
Reaches altitude 10° 16:50:38 10° 262° (W) 1,448 7.5 -8.8°
Maximum altitude 16:53:43 41° 334° (NNW) 595 3.9 -9.4°
Enters shadow 16:56:42 11° 46° (NE) 1,404 5.2 -9.9°
